Visibility
15.0 15.0 15.0 15.0 15.0 15.0 15.0 15.0 15.0 15.0 15.0 15.0 15.0 15.0 9.2 14.3 6.3 5.7 9.3 9.8 11.7 12.2
15.0 15.0 15.0 15.0 15.0 15.0 15.0 15.0 15.0 15.0 15.0 15.0 15.0 15.0 15.0 15.0 9.2 5.5 4.9 7.5 9.9 15.0
15.0 15.0 15.0 15.0 15.0 15.0 15.0 15.0 15.0 15.0 15.0 15.0 15.0 14.1 14.9 14.4 14.9 8.3 6.9 5.3 7.1 15.0
15.0 15.0 15.0 15.0 15.0 15.0 15.0 15.0 15.0 15.0 15.0 15.0 15.0 15.0 13.0 11.6 14.9 14.5 8.7 9.5 7.8 2.6
15.0 15.0 15.0 15.0 15.0 15.0 15.0 15.0 15.0 15.0 15.0 8.2 15.0 15.0 15.0 11.6 9.7 7.4 15.0 9.5 13.5 15.0
15.0 15.0 15.0 15.0 15.0 15.0 15.0 15.0 15.0 15.0 15.0 9.5 15.0 14.6 15.0 10.9 6.7 9.8 15.0 15.0 13.8 15.0
15.0 15.0 15.0 15.0 15.0 15.0 15.0 15.0 15.0 15.0 15.0 15.0 15.0 15.0 14.2 15.0 10.8 15.0 13.3 14.9 15.0 6.3
15.0 15.0 15.0 15.0 15.0 15.0 15.0 15.0 15.0 15.0 15.0 15.0 13.1 13.3 15.0 14.8 15.0 15.0 5.6 14.9 15.0 5.2
15.0 15.0 15.0 15.0 15.0 15.0 15.0 15.0 15.0 15.0 15.0 12.0 10.2 13.6 12.5 15.0 9.7 14.7 14.0 1.1 0.2 0.0
15.0 15.0 15.0 15.0 15.0 15.0 15.0 15.0 15.0 15.0 15.0 15.0 15.0 10.5 13.9 7.1 15.0 15.0 11.1 3.4 0.5 0.1
15.0 15.0 15.0 15.0 15.0 15.0 12.0 0.2 0.1 0.1 6.8 6.9 9.3 8.7 15.0 10.3 0.3 0.3 0.1 0.2 12.5 8.9
15.0 4.2 3.0 0.1 0.1 0.1 0.1 0.1 0.0 0.0 0.0 0.0 0.0 0.0 0.0 0.1 0.1 2.9 15.0 15.0 15.0 15.0
0.0 0.0 0.0 0.0 0.0 0.0 0.0 0.0 0.0 0.0 0.0 0.0 0.0 1.8 8.4 15.0 15.0 15.0 15.0 15.0 15.0 15.0
0.1 0.0 0.1 0.0 0.0 0.1 0.0 0.0 0.1 0.1 0.0 5.4 5.4 15.0 15.0 11.8 15.0 15.0 15.0 15.0 15.0 15.0